Weather in Ruchyi

Russia / Arkhangel'skaya Oblast'     65°59′19″N   41°05′19″E
temp.,
°C
wind,
m/s
gust,
m/s
humid.,
%
clouds,
%
prec.,
mm/h
press.,
hPa
HPBL,
m
28 november, sun
sun2800:00−12e459473 0.0 1013259
03:00−13ese579870 0.0 1013241
06:00−13e6810080 0.0 1013283
09:00−13e7119734 0.0 1012320
12:00−13e8119429 0.0 1012359
15:00−12e8138422 0.0 1012431
18:00−11e8138616 0.0 1011527
21:00−10e8129139 0.0 1011522
29 november, mon
mon2900:00−10e6109469 0.0 1010434
03:00−9ene698726 0.0 1011413
06:00−10e458625 0.0 1012220
09:00−11s329896 0.4 1013137
12:00−6nw238298 0.5 1014522
15:00−6nnw227443 0.6 1014485
18:00−6nnw237583 0.1 1015589
21:00−5ese238178 0.3 1014378
30 november, tue
tue3000:00−9se55100100 0.0 1015141
03:00−11ese67100100 0.1 1013200
06:00−11ese71190100 0.0 1011324
09:00−11e9149497 0.0 1009414
12:00−12e10168198 0.0 1006421
15:00−12e111681100 0.0 1002422
18:00−11e121977100 0.0 998484
21:00−11e111885100 0.0 994491
1 december, wed
wed100:00−9ene111878100 0.0 991569
03:00−9ene121783100 0.0 989578
06:00−9ene111486100 0.0 988512
09:00−9e101389100 0.0 987514
12:00−9ene101394100 0.4 988544
15:00−9e101394100 1.3 987542
18:00−8e101294100 1.4 987516
21:00−8e91193100 2.8 987482
2 december, thu
thu200:00−7e81193100 1.1 986425
03:00−7e81092100 1.4 986394
06:00−7e81092100 0.3 986374
09:00−7e81093100 0.6 986345
12:00−7e7894100 0.5 987351
15:00−6e6793100 0.9 988328
18:00−6ene7793100 0.8 989398
21:00−7ene81093100 1.9 990500